Location: Clermont
(50.2608°N, 4.3172°E)
Time: 14:50:35
(UTC+00:00)

Thor Agena Rocket - Pass Details

Date: 13 August 2020
Orbit: 760 x 807 km, 99.0° (Epoch: 18 September)

Event Time Altitude Azimuth Distance (km) Brightness Sun altitude
Rises 23:30:18 0° 11° (N) 3,244 8.0 -25.3°
Reaches altitude 10° 23:32:41 10° 5° (N) 2,318 7.0 -25.4°
Maximum altitude 23:37:30 45° 294° (WNW) 1,054 4.3 -25.4°
Enters shadow 23:38:47 37° 257° (WSW) 1,189 4.3 -25.4°
